map of BSF home
BSF - Airport
Location
City:  Camp Pohakuloa, Hawaii, Hawaii, United States
Name:Bradshaw AAF
ICAO:PHSF
IATA:BSF
FAA LID:BSF

Details
Type:Airport (Airfield)
Use:Military
Latitude:1945'36"N (19.760013)
Longitude:15533'14"W (-155.553765)
Datum:WGS 1984
Elevation:6190 ft (1887 m)
Variation:9.43E (WMM2015 magnetic declination)
-0.03 annual change
Runways:1
Longest:3695 × 90 ft (1126 × 27.5 m), paved

Time
Time Zone:UTC-10
Local Time:

Weather
METAR:PHSF 121456Z AUTO 13010G18KT 10SM CLR 10/07 A3040 RMK AO2 SLP195 WND DATA ESTMD T01010072 55004 PWINO $

Related Locations
Nearby:
Farthest:FBMM: 12384 mi / 19930 km
Makalamabedi [Makalamabedi Airport], NW, BW

Find:

   beyond  
but within

Other Information
Maps:
NOTAMs:
Links:
Sources:

  
  • flag of United States
  • flag of Hawaii
  

Sectional Chart

Flight Planning
at skyvector.com

Satellite Image

Google Maps Satellite view

 

Copyright © 2004-2018 Karl L. Swartz. All rights reserved.
The Great Circle Mapper name and logo are trademarks of the Great Circle Mapper.
All other trademarks mentioned herein belong to their respective owners.
Please see credits for attibutions and further copyright information.

  Follow gcmap on Facebook Follow gcmap on Twitter Follow gcmap on Google+ GCmap on LinkedIn

hCard Microformat

Geo Microformat